Find Starlink 30161

NORAD ID: 57476 Int'l Des: 2023-107 Owner: SPXS Country: US Constellation: starlink operational
LEOCIRCULAR

現在のビュー

3D地球を読み込み中...

About Starlink 30161

Starlink 30161 (NORAD 57476) is a starlink constellation satellite (v2 mini) launched Jul 28, 2023 by SPXS of US. It operates in LEO, CIRCULAR orbit with a mass of 730.00 kg.

Starlink 30161について

説明を読み込み中...

次回通過

Passes for default location (London). Set your location on the main map for personalized predictions.

高度履歴

Loading altitude history...

軌道要素

1 57476U 23107V 26174.96290423 .00000580 00000-0 30600-4 0 9993
2 57476 43.0078 95.6298 0001479 253.1724 106.8966 15.27566863161404
Epoch: Jun 23, 2026 • Age: 16 hours

現在のステータス

高度 485.4 km
速度 7.63 km/s
衛星直下点 34.38°N, 0.26°E
打ち上げ日 Jul 28, 2023
運用期間 2.9 years
タイプ internet

技術仕様

分類 Payload
質量 730.00 kg
乾燥質量 700.00 kg
総質量 730.00 kg
長さ 0.30 m
直径 4.10 m
スパン 29.00 m
形状 Box + pan
製造者 SPXS
バスタイプ Starlink V2M
フェーズステータス In Orbit
所有者/国 SPXS/US

Most Searched